Weather Roundup
Issued by NWS Chicago, IL

Home | Current Version | Previous Version | Text Only | Print | Product List | Glossary Off
Versions: 1 2 3 4 5 6 7 8 9 10 11 12 13 14 15 16 17 18 19 20 21 22 23 24 25 26 27 28 29 30 31 32 33 34 35 36 37 38 39 40 41 42 43 44 45 46 47 48 49 50

000
NZUS59 KLOT 250212
HRRLOT

CHICAGO AREA WEATHER ROUNDUP
NATIONAL WEATHER SERVICE CHICAGO/ROMEOVILLE IL
800 PM CST FRI FEB 24 2017

NOTE: "FAIR" INDICATES FEW OR NO CLOUDS BELOW 12,000 FEET WITH NO
SIGNIFICANT WEATHER AND/OR OBSTRUCTIONS TO VISIBILITY.

* THESE STATIONS ARE NOT UNDER NWS QUALITY CONTROL. THEY ALSO MAY NOT
  REPORT WEATHER SUCH AS PRECIPITATION OR FOG.

ILZ005-006-012>014-019>023-250300-
NORTHEAST ILLINOIS

CITY           SKY/WX    TMP DP  RH WIND       PRES   REMARKS
OHARE          DRIZZLE   38  35  89 W12       29.55R
MIDWAY         MOCLDY    40  34  79 W10       29.56R
AURORA         CLOUDY    36  33  89 NW15      29.57S
LANSING*       DRIZZLE   41  39  93 W17G26    29.57R
JOLIET*        CLOUDY    41  37  87 W8        29.58R
WAUKEGAN       LGT SNOW  32  31  96 NW6       29.55R FOG     WCI  26
DUPAGE AIRPORT LGT RAIN  35  31  85 NW12      29.56R WCI  27
WHEELING       CLOUDY    36  33  89 NW8       29.57R
KANKAKEE*      CLOUDY    42  35  78 W8G17     29.60R
MORRIS*        CLOUDY    39  37  90 W10       29.58R
LEWIS AIRPORT* CLOUDY    38  38  99 W13       29.57R
NORTHERLY ISL    N/A     41  36  82 W6          N/A
$$

WIZ051-052-058>065-066-070>072-250300-
SOUTHEAST WISCONSIN

CITY           SKY/WX    TMP DP  RH WIND       PRES   REMARKS
MILWAUKEE      DRIZZLE   33  29  85 NW13      29.54S FOG     WCI  24
KENOSHA*       LGT SNOW  32  30  92 NW8       29.55R FOG     WCI  25
RACINE*        CLOUDY    32  30  92 NW9       29.57R FOG     WCI  24
WAUKESHA       MIX PCPN  28  28 100 NW10      29.57R WCI  19
WEST BEND      CLOUDY    28  28 100 NW3       29.55S FOG
$$

INZ001>003-010>013-019-020-250300-
NORTHWEST INDIANA

CITY           SKY/WX    TMP DP  RH WIND       PRES   REMARKS
GARY*          CLOUDY    45  36  70 W22       29.56R
MICHIGAN CITY* NOT AVBL
RENSSELAER*    NOT AVBL
VALPARAISO     CLOUDY    42  40  92 W5        29.57R FOG
$$

LMZ740>746-250300-
SOUTHERN LAKE MICHIGAN

STATION/POSITION TIME  SKY/WX   TEMP WIND        PRES    VSBY
                                AIR  DIR/SP/G
                 (UTC)          (F)  (DEG/KT/KT) (MB)    (MI)
HARRISON CRIB    0140            40  300/ 11/ 13   N/A
BURNHAM HARBOR   0200            40  260/  6/ 15   N/A
CALUMET HARBOR   0148            41  250/  8/ 17 1000.5R
BURNS HARBOR     0140            36  290/  3/  5 1001.7R
MICHIGAN CITY    0140            35  280/  9/ 10   N/A
$$

ABBREVIATIONS USED IN REMARKS
   TC - TEMPERATURE IN CELSIUS
  WCI - WIND CHILL INDEX
   HX - HEAT INDEX
  VSB - VISIBILITY
$$



USA.gov is the U.S. government's official web portal to all federal, state and local government web resources and services.